Location: Brachbach
(49.1847°N, 9.7240°E)
Time: 05:38:01
(UTC+00:00)

PCSat - Pass Details

Date: 17 March 2026
Orbit: 780 x 790 km, 67.1° (Epoch: 13 April)

Event Time Altitude Azimuth Distance (km) Brightness Sun altitude
Rises 04:32:24 0° 326° (NW) 3,296 12.5 -10.3°
Reaches altitude 10° 04:35:04 10° 336° (NNW) 2,365 11.9 -9.9°
Maximum altitude 04:39:57 33° 40° (NE) 1,303 11.3 -9.1°
Drops below altitude 10° 04:44:49 10° 105° (ESE) 2,353 13.3 -8.3°
Sets 04:47:27 0° 115° (ESE) 3,278 13.9 -7.9°
